| time (UTC) | temp F | wind direction | speed MPH | gust MPH | rain 1hr in | rain 24hr in | rain mn in | humidity % | barometer mb |
| 20260502215923 | 69 | 301 | 0.0 | 1.0 | 0.00 | 0.05 | 0.05 | 28 | 1015.9 |
| 20260502214924 | 68 | 217 | 1.0 | 1.0 | 0.00 | 0.05 | 0.05 | 30 | 1016.0 |
| 20260502213924 | 69 | 311 | 1.0 | 2.0 | 0.00 | 0.05 | 0.05 | 32 | 1016.0 |
| 20260502212924 | 68 | 289 | 1.0 | 2.0 | 0.00 | 0.05 | 0.05 | 32 | 1016.2 |
| 20260502211924 | 68 | 286 | 1.0 | 1.0 | 0.00 | 0.05 | 0.05 | 32 | 1016.5 |
| 20260502210924 | 68 | 286 | 0.0 | 2.0 | 0.00 | 0.05 | 0.05 | 34 | 1016.5 |
| 20260502205923 | 67 | 28 | 1.0 | 1.0 | 0.00 | 0.05 | 0.05 | 31 | 1016.7 |
| 20260502204924 | 67 | 230 | 3.0 | 3.0 | 0.00 | 0.05 | 0.05 | 31 | 1016.9 |
| 20260502203923 | 67 | 299 | 1.0 | 1.0 | 0.00 | 0.05 | 0.05 | 32 | 1017.0 |
| 20260502202924 | 67 | 286 | 1.0 | 1.0 | 0.00 | 0.05 | 0.05 | 33 | 1017.0 |
| 20260502201925 | 67 | 239 | 1.0 | 3.0 | 0.00 | 0.05 | 0.05 | 34 | 1017.1 |
| 20260502200924 | 67 | 282 | 2.0 | 2.0 | 0.00 | 0.05 | 0.05 | 32 | 1017.1 |
| 20260502195924 | 67 | 29 | 7.0 | 9.0 | 0.00 | 0.05 | 0.05 | 31 | 1017.0 |
| 20260502194924 | 67 | 16 | 5.0 | 7.0 | 0.00 | 0.05 | 0.05 | 33 | 1017.0 |
| 20260502193923 | 66 | 307 | 1.0 | 1.0 | 0.00 | 0.05 | 0.05 | 35 | 1017.1 |
| 20260502192924 | 66 | 269 | 1.0 | 1.0 | 0.00 | 0.05 | 0.05 | 34 | 1017.5 |
| 20260502191923 | 65 | 282 | 1.0 | 1.0 | 0.00 | 0.05 | 0.05 | 37 | 1017.5 |
| 20260502190924 | 66 | 339 | 1.0 | 5.0 | 0.00 | 0.05 | 0.05 | 35 | 1017.6 |
| 20260502185924 | 65 | 37 | 3.0 | 6.0 | 0.00 | 0.05 | 0.05 | 33 | 1017.7 |
| 20260502184923 | 65 | 350 | 0.0 | 1.0 | 0.00 | 0.05 | 0.05 | 36 | 1018.0 |
| 20260502183924 | 65 | 294 | 1.0 | 1.0 | 0.00 | 0.05 | 0.05 | 37 | 1018.1 |
| 20260502182923 | 64 | 343 | 0.0 | 1.0 | 0.00 | 0.05 | 0.05 | 38 | 1018.2 |
| 20260502181924 | 65 | 21 | 1.0 | 5.0 | 0.00 | 0.05 | 0.05 | 40 | 1018.2 |
| 20260502180923 | 63 | 69 | 1.0 | 3.0 | 0.00 | 0.05 | 0.05 | 38 | 1018.3 |
| 20260502163924 | 63 | 44 | 5.0 | 6.0 | 0.00 | 0.05 | 0.05 | 37 | 1019.1 |
| 20260502162925 | 62 | 137 | 1.0 | 2.0 | 0.00 | 0.05 | 0.05 | 37 | 1019.1 |
| 20260502161924 | 62 | 11 | 1.0 | 3.0 | 0.00 | 0.05 | 0.05 | 40 | 1019.1 |
| 20260502160925 | 61 | 54 | 1.0 | 2.0 | 0.00 | 0.05 | 0.05 | 38 | 1019.2 |
| 20260502151923 | 57 | 92 | 2.0 | 5.0 | 0.00 | 0.05 | 0.05 | 45 | 1019.6 |
| 20260502150926 | 57 | 68 | 1.0 | 2.0 | 0.00 | 0.05 | 0.05 | 47 | 1019.5 |
| 20260502122926 | 45 | 40 | 2.0 | 2.0 | 0.00 | 0.05 | 0.05 | 79 | 1018.6 |
| 20260502121925 | 45 | 56 | 1.0 | 3.0 | 0.00 | 0.05 | 0.05 | 80 | 1018.6 |
| 20260502120924 | 45 | 51 | 1.0 | 3.0 | 0.00 | 0.05 | 0.05 | 81 | 1018.5 |
| 20260502115925 | 45 | 30 | 0.0 | 0.0 | 0.00 | 0.05 | 0.05 | 80 | 1018.0 |
| 20260502114924 | 45 | 55 | 2.0 | 3.0 | 0.00 | 0.05 | 0.05 | 80 | 1017.9 |
| 20260502113925 | 45 | 37 | 1.0 | 3.0 | 0.00 | 0.05 | 0.05 | 82 | 1017.8 |
| 20260502112926 | 45 | 49 | 1.0 | 3.0 | 0.00 | 0.05 | 0.05 | 83 | 1017.8 |
| 20260502111925 | 45 | 34 | 1.0 | 3.0 | 0.00 | 0.05 | 0.05 | 84 | 1017.6 |
| 20260502110925 | 45 | 27 | 2.0 | 2.0 | 0.00 | 0.05 | 0.05 | 85 | 1017.4 |
| 20260502105926 | 45 | 36 | 1.0 | 2.0 | 0.00 | 0.05 | 0.05 | 86 | 1017.2 |
| 20260502104925 | 46 | 33 | 1.0 | 2.0 | 0.00 | 0.05 | 0.05 | 86 | 1017.3 |
| 20260502103926 | 46 | 36 | 1.0 | 2.0 | 0.00 | 0.05 | 0.05 | 86 | 1017.3 |
| 20260502102925 | 46 | 53 | 2.0 | 3.0 | 0.00 | 0.05 | 0.05 | 86 | 1017.2 |
| 20260502101926 | 47 | 22 | 1.0 | 3.0 | 0.00 | 0.05 | 0.05 | 87 | 1017.1 |
| 20260502100925 | 47 | 36 | 1.0 | 2.0 | 0.00 | 0.05 | 0.05 | 88 | 1017.0 |
| 20260502090925 | 48 | 17 | 1.0 | 3.0 | 0.00 | 0.05 | 0.05 | 90 | 1016.5 |
| 20260502070925 | 51 | 280 | 1.0 | 1.0 | 0.01 | 0.05 | 0.05 | 88 | 1017.3 |
| 20260502065924 | 51 | 279 | 1.0 | 1.0 | 0.01 | 0.05 | 0.05 | 89 | 1017.1 |
| 20260502064925 | 52 | 133 | 0.0 | 2.0 | 0.01 | 0.05 | 0.05 | 87 | 1015.9 |
| 20260502063924 | 52 | 21 | 1.0 | 3.0 | 0.02 | 0.04 | 0.04 | 88 | 1016.8 |
| 20260502062925 | 52 | 132 | 0.0 | 2.0 | 0.04 | 0.04 | 0.04 | 87 | 1016.6 |
| 20260502061926 | 52 | 129 | 0.0 | 2.0 | 0.04 | 0.04 | 0.04 | 87 | 1016.4 |
| 20260502060925 | 52 | 52 | 0.0 | 1.0 | 0.04 | 0.04 | 0.04 | 84 | 1016.4 |
| 20260502055926 | 53 | 52 | 0.0 | 0.0 | 0.04 | 0.04 | 0.04 | 84 | 1016.6 |
| 20260502054925 | 53 | 51 | 0.0 | 0.0 | 0.04 | 0.04 | 0.04 | 80 | 1016.3 |
| 20260502053926 | 54 | 28 | 1.0 | 2.0 | 0.02 | 0.02 | 0.02 | 78 | 1016.8 |
| 20260502052925 | 54 | 56 | 1.0 | 1.0 | 0.00 | 0.00 | 0.00 | 73 | 1016.2 |
| 20260502051924 | 54 | 351 | 1.0 | 2.0 | 0.00 | 0.00 | 0.00 | 72 | 1015.7 |
| 20260502050925 | 55 | 39 | 1.0 | 3.0 | 0.00 | 0.00 | 0.00 | 72 | 1015.1 |
| 20260502045926 | 55 | 42 | 1.0 | 3.0 | 0.00 | 0.00 | 0.00 | 70 | 1015.6 |
| 20260502044925 | 55 | 140 | 1.0 | 2.0 | 0.00 | 0.00 | 0.00 | 70 | 1015.6 |
| 20260502043925 | 55 | 173 | 1.0 | 2.0 | 0.00 | 0.00 | 0.00 | 70 | 1015.6 |
| 20260502042926 | 55 | 59 | 0.0 | 2.0 | 0.00 | 0.00 | 0.00 | 71 | 1015.5 |
| 20260502041925 | 55 | 72 | 0.0 | 2.0 | 0.00 | 0.00 | 0.00 | 73 | 1015.6 |
| 20260502040926 | 55 | 42 | 1.0 | 1.0 | 0.00 | 0.00 | 0.00 | 73 | 1015.6 |
| 20260502035926 | 55 | 51 | 1.0 | 2.0 | 0.00 | 0.00 | 0.00 | 68 | 1015.9 |
| 20260502034925 | 55 | 57 | 1.0 | 1.0 | 0.00 | 0.00 | 0.00 | 68 | 1015.8 |
| 20260502033926 | 55 | 67 | 1.0 | 3.0 | 0.00 | 0.00 | 0.00 | 67 | 1015.7 |
| 20260502032925 | 56 | 59 | 1.0 | 3.0 | 0.00 | 0.00 | 0.00 | 68 | 1015.8 |
| 20260502031926 | 56 | 32 | 2.0 | 3.0 | 0.00 | 0.00 | 0.00 | 67 | 1015.9 |
| 20260502030925 | 57 | 35 | 2.0 | 3.0 | 0.00 | 0.00 | 0.00 | 61 | 1015.7 |
| 20260502025924 | 57 | 42 | 2.0 | 3.0 | 0.00 | 0.00 | 0.00 | 59 | 1015.6 |
| 20260502024925 | 58 | 40 | 2.0 | 3.0 | 0.00 | 0.00 | 0.00 | 57 | 1015.4 |
| 20260502023926 | 58 | 49 | 1.0 | 1.0 | 0.00 | 0.00 | 0.00 | 56 | 1015.3 |
| 20260502022925 | 58 | 97 | 1.0 | 2.0 | 0.00 | 0.00 | 0.00 | 56 | 1015.3 |
| 20260502021925 | 58 | 83 | 1.0 | 3.0 | 0.00 | 0.00 | 0.00 | 55 | 1015.3 |
| 20260502020924 | 59 | 86 | 1.0 | 2.0 | 0.00 | 0.00 | 0.00 | 55 | 1015.3 |
| 20260502015925 | 59 | 78 | 1.0 | 2.0 | 0.00 | 0.00 | 0.00 | 53 | 1015.5 |
| 20260502014924 | 59 | 45 | 0.0 | 2.0 | 0.00 | 0.00 | 0.00 | 53 | 1015.5 |
| 20260502013925 | 59 | 26 | 2.0 | 6.0 | 0.00 | 0.00 | 0.00 | 52 | 1015.0 |
| 20260502012924 | 59 | 25 | 1.0 | 3.0 | 0.00 | 0.00 | 0.00 | 52 | 1014.4 |
| 20260502011924 | 60 | 20 | 3.0 | 9.0 | 0.00 | 0.00 | 0.00 | 51 | 1014.3 |
| 20260502010925 | 60 | 51 | 2.0 | 3.0 | 0.00 | 0.00 | 0.00 | 50 | 1014.3 |
| 20260502005924 | 60 | 14 | 2.0 | 3.0 | 0.00 | 0.00 | 0.00 | 50 | 1014.7 |
| 20260502004925 | 61 | 23 | 5.0 | 5.0 | 0.00 | 0.00 | 0.00 | 47 | 1014.7 |
| 20260502003924 | 61 | 10 | 3.0 | 7.0 | 0.00 | 0.00 | 0.00 | 47 | 1014.5 |
| 20260502002925 | 62 | 32 | 2.0 | 5.0 | 0.00 | 0.00 | 0.00 | 46 | 1014.1 |
| 20260502001926 | 62 | 35 | 6.0 | 12.0 | 0.00 | 0.00 | 0.00 | 44 | 1014.1 |
| 20260502000925 | 63 | 10 | 2.0 | 3.0 | 0.00 | 0.00 | 0.00 | 43 | 1014.1 |
| 20260501235924 | 63 | 8 | 5.0 | 7.0 | 0.00 | 0.00 | 0.00 | 42 | 1014.1 |
| 20260501234925 | 64 | 14 | 5.0 | 13.0 | 0.00 | 0.00 | 0.00 | 39 | 1013.9 |
| 20260501233925 | 66 | 1 | 3.0 | 15.0 | 0.00 | 0.00 | 0.00 | 36 | 1013.6 |
| 20260501232924 | 66 | 33 | 2.0 | 5.0 | 0.00 | 0.00 | 0.00 | 35 | 1013.5 |
| 20260501231925 | 66 | 38 | 2.0 | 2.0 | 0.00 | 0.00 | 0.00 | 34 | 1013.4 |
| 20260501230925 | 66 | 34 | 1.0 | 2.0 | 0.00 | 0.00 | 0.00 | 34 | 1013.3 |
| 20260501225926 | 67 | 34 | 2.0 | 3.0 | 0.00 | 0.00 | 0.00 | 32 | 1012.9 |
| 20260501224925 | 67 | 36 | 2.0 | 3.0 | 0.00 | 0.00 | 0.00 | 33 | 1012.9 |
| 20260501223926 | 68 | 61 | 2.0 | 3.0 | 0.00 | 0.00 | 0.00 | 32 | 1012.8 |
| 20260501222925 | 68 | 283 | 1.0 | 1.0 | 0.00 | 0.00 | 0.00 | 30 | 1012.8 |
| 20260501221925 | 68 | 298 | 0.0 | 1.0 | 0.00 | 0.00 | 0.00 | 29 | 1012.7 |
| 20260501220924 | 69 | 285 | 2.0 | 3.0 | 0.00 | 0.00 | 0.00 | 29 | 1012.6 |